Flag for U.S.A. Weather past 2 weeks in Fairfax, Virginia, U.S.A.

Now
75 °F

Passing clouds.


Feels Like: 77 °F
Forecast: 67 / 89 °F
Wind: 8 mph from South

Location: Washington-Dulles International Airport

Current Time: Aug 3, 2015 at 9:53:41 AM

Latest Report: Aug 3, 2015 at 8:52 AM


Visibility: 10 mi

Pressure: 29.88 "Hg

Humidity: 69%

Dew point: 64 °F

Location of FairfaxLocation

Historic Weather in Fairfax — Graph

°F

Fairfax temperature yesterday

Maximum temperature yesterday: 87 °F (at 3:52 PM)
Minimum temperature yesterday: 61 °F (at 5:52 AM)
Average temperature yesterday: 75 °F

Past Weeks' High & Low Weather Summary

 TemperatureHumidityPressure
High93 °F (Jul 19, 2:52 PM)100% (Jul 29, 5:52 AM)30.02 "Hg (Jul 29, 5:52 AM)
Low59 °F (Jul 24, 5:52 AM)35% (Jul 24, 11:52 AM)29.64 "Hg (Jul 21, 5:52 PM)
Average77 °F69%29.91 "Hg
* Reported Jul 19 7:52 AM — Aug 3 7:52 AM, Fairfax, Weather by CustomWeather, © 2015

Note: Actual official high and low records may vary slightly from our data, if they occured in-between our weather recording intervals... More about our weather records

Advertising

Fairfax weather history for previous 24 hours

 ConditionsComfort  
Time TempWeatherWind HumidityBarometerVisibility
7:52 AM
Mon, Aug 3
70 °FSunny.8 mph76%29.87 "Hg10 mi
6:52 AM66 °FPassing clouds.5 mph87%29.87 "Hg10 mi
5:52 AM65 °FPassing clouds.7 mph91%29.85 "Hg10 mi
4:52 AM66 °FPassing clouds.7 mph87%29.86 "Hg10 mi
3:52 AM67 °FPassing clouds.6 mph85%29.86 "Hg10 mi
2:52 AM67 °FPassing clouds.7 mph85%29.88 "Hg10 mi
1:52 AM68 °FPassing clouds.6 mph82%29.88 "Hg10 mi
12:52 AM68 °FClear.7 mph84%29.89 "Hg10 mi
11:52 PM
Sun, Aug 2
70 °FClear.8 mph79%29.89 "Hg10 mi
10:52 PM71 °FClear.No wind73%29.90 "Hg10 mi
9:52 PM72 °FClear.3 mph71%29.91 "Hg10 mi
8:52 PM74 °FPassing clouds.5 mph67%29.91 "Hg10 mi
7:52 PM78 °FPassing clouds.7 mph56%29.91 "Hg10 mi
6:52 PM82 °FPassing clouds.12 mph46%29.90 "Hg10 mi
5:52 PM84 °FPartly sunny.10 mph41%29.92 "Hg10 mi
4:52 PM86 °FPartly sunny.No wind35%29.93 "Hg10 mi
3:52 PM87 °FPartly sunny.6 mph35%29.93 "Hg10 mi
2:52 PM86 °FPartly sunny.No wind35%29.95 "Hg10 mi
1:52 PM84 °FPartly sunny.6 mph36%29.95 "Hg10 mi
12:52 PM83 °FBroken clouds.8 mph38%29.97 "Hg10 mi
11:52 AM82 °FPartly sunny.3 mph49%29.98 "Hg10 mi
10:52 AM80 °FPartly sunny.No wind52%29.98 "Hg10 mi
9:52 AM77 °FPartly sunny.5 mph58%29.97 "Hg10 mi
Weather by CustomWeather, © 2015

See weather overviewHow to use our weather pages